星链-2007 (STARLINK-2007 )

导读

STARLINK-2007是美国SpaceX公司星链(Starlink)项目中的卫星,于2021年2月4日发射升空,属于星链第一代低轨互联网卫星星座的组成部分。星链项目计划在近地轨道部署上万颗卫星,旨在为全球提供高速、低延迟的宽带互联网服务,尤其覆盖偏远地区,STARLINK-2007也承担着全球网络覆盖和数据传输的任务。这类卫星采用小型化平板设计,配备离子推进系统,任务结束后会再入大气层销毁,减少太空垃圾。

基本信息
目录编号:
47602
目录名称:
STARLINK-2007
国际标识:
2021-009BG
轨道中心:
EARTH
卫星名称:
星链-2007
卫星全名:
星链-2007 (STARLINK-2007 )
卫星状态:
已陨落 最后检测时间 2025-04-27
发射日期:
2021-02-04 UTC
国别 :
美国 (US)
星等 :
--
该卫星已列入 空间交会检测服务 Space Conjunction Data Service (SCDS) ,当前飞行风险评估等级: 无高风险
轨道信息
数据来源 国际轨道数据
星历时间: 2025-04-27T20:32:39+0800
轨道信息已过期501天
半长轴: 6543.352km
偏心率: 0.001034
轨道倾角: 53.011°
近地点辐角 281.068°
升交点赤经 284.017°
平近点角 187.153°
近地点: 158.451km
远地点: 171.983km
周期: 87.793分钟
每日圈数: 16.402211
详细信息
固有亮度:
5
最大亮度:
2.5
卫星平台:
Starlink V1.0
覆盖范围:
全球
运营商:
太空探索技术公司
运营商所在国:
美国
制造商(研发单位):
太空探索技术公司
制造商所在国:
美国
使用方式:
暂无
卫星简介
星链(Starlink)计划是由太空探索技术公司(SpaceX)提出的一个巨型低轨卫星互联网星座项目,计划在2019年至2024年间在太空搭建由约1.2万颗卫星组成的“星链”网络,其中1584颗将部署在地球上空550千米处的近地轨道,并从2020年开始工作。该卫星仍在工作。
与全量物体交会距离演化趋势
与全量物体交会风险概率演化趋势